Year,Month,Day,Hour,Minute,Value (Times are PST for temperature in C)
2010,04,09,00,00,4.90
2010,04,09,00,01,4.90
2010,04,09,00,02,4.90
2010,04,09,00,03,4.90
2010,04,09,00,04,4.80
2010,04,09,00,05,4.80
2010,04,09,00,06,4.70
2010,04,09,00,07,4.70
2010,04,09,00,08,4.60
2010,04,09,00,09,4.60
2010,04,09,00,10,4.60
2010,04,09,00,11,4.60
2010,04,09,00,12,4.60
2010,04,09,00,13,4.60
2010,04,09,00,14,4.60
2010,04,09,00,15,4.60
2010,04,09,00,16,4.60
2010,04,09,00,17,4.60
2010,04,09,00,18,4.60
2010,04,09,00,19,4.70
2010,04,09,00,20,4.70
2010,04,09,00,21,4.80
2010,04,09,00,22,4.90
2010,04,09,00,23,4.90
2010,04,09,00,24,4.90
2010,04,09,00,25,4.90
2010,04,09,00,26,5.00
2010,04,09,00,27,5.10
2010,04,09,00,28,5.10
2010,04,09,00,29,5.10
2010,04,09,00,30,5.10
2010,04,09,00,31,5.10
2010,04,09,00,32,5.10
2010,04,09,00,33,5.10
2010,04,09,00,34,5.20
2010,04,09,00,35,5.20
2010,04,09,00,36,5.20
2010,04,09,00,37,5.10
2010,04,09,00,38,5.10
2010,04,09,00,39,5.10
2010,04,09,00,40,5.10
2010,04,09,00,41,5.00
2010,04,09,00,42,4.90
2010,04,09,00,43,4.90
2010,04,09,00,44,4.90
2010,04,09,00,45,4.80
2010,04,09,00,46,4.80
2010,04,09,00,47,4.70
2010,04,09,00,48,4.70
2010,04,09,00,49,4.70
2010,04,09,00,50,4.60
2010,04,09,00,51,4.60
2010,04,09,00,52,4.60
2010,04,09,00,53,4.60
2010,04,09,00,54,4.60
2010,04,09,00,55,4.50
2010,04,09,00,56,4.40
2010,04,09,00,57,4.30
2010,04,09,00,58,4.20
2010,04,09,00,59,4.10
2010,04,09,01,00,4.10
2010,04,09,01,01,4.00
2010,04,09,01,02,4.00
2010,04,09,01,03,3.90
2010,04,09,01,04,3.80
2010,04,09,01,05,3.80
2010,04,09,01,06,3.80
2010,04,09,01,07,3.70
2010,04,09,01,08,3.70
2010,04,09,01,09,3.70
2010,04,09,01,10,3.60
2010,04,09,01,11,3.60
2010,04,09,01,12,3.50
2010,04,09,01,13,3.50
2010,04,09,01,14,3.50
2010,04,09,01,15,3.50
2010,04,09,01,16,3.40
2010,04,09,01,17,3.40
2010,04,09,01,18,3.40
2010,04,09,01,19,3.40
2010,04,09,01,20,3.40
2010,04,09,01,21,3.40
2010,04,09,01,22,3.40
2010,04,09,01,23,3.40
2010,04,09,01,24,3.40
2010,04,09,01,25,3.40
2010,04,09,01,26,3.40
2010,04,09,01,27,3.50
2010,04,09,01,28,3.50
2010,04,09,01,29,3.50
2010,04,09,01,30,3.60
2010,04,09,01,31,3.60
2010,04,09,01,32,3.60
2010,04,09,01,33,3.60
2010,04,09,01,34,3.70
2010,04,09,01,35,3.70
2010,04,09,01,36,3.70
2010,04,09,01,37,3.70
2010,04,09,01,38,3.70
2010,04,09,01,39,3.70
2010,04,09,01,40,3.70
2010,04,09,01,41,3.70
2010,04,09,01,42,3.70
2010,04,09,01,43,3.80
2010,04,09,01,44,3.80
2010,04,09,01,45,3.80
2010,04,09,01,46,3.80
2010,04,09,01,47,3.80
2010,04,09,01,48,3.80
2010,04,09,01,49,3.80
2010,04,09,01,50,3.80
2010,04,09,01,51,3.80
2010,04,09,01,52,3.80
2010,04,09,01,53,3.80
2010,04,09,01,54,3.80
2010,04,09,01,55,3.80
2010,04,09,01,56,3.80
2010,04,09,01,57,3.80
2010,04,09,01,58,3.80
2010,04,09,01,59,3.80
2010,04,09,02,00,3.80
2010,04,09,02,01,3.80
2010,04,09,02,02,3.80
2010,04,09,02,03,3.70
2010,04,09,02,04,3.70
2010,04,09,02,05,3.70
2010,04,09,02,06,3.70
2010,04,09,02,07,3.70
2010,04,09,02,08,3.60
2010,04,09,02,09,3.60
2010,04,09,02,10,3.60
2010,04,09,02,11,3.60
2010,04,09,02,12,3.50
2010,04,09,02,13,3.50
2010,04,09,02,14,3.50
2010,04,09,02,15,3.40
2010,04,09,02,16,3.40
2010,04,09,02,17,3.40
2010,04,09,02,18,3.40
2010,04,09,02,19,3.40
2010,04,09,02,20,3.40
2010,04,09,02,21,3.40
2010,04,09,02,22,3.30
2010,04,09,02,23,3.30
2010,04,09,02,24,3.30
2010,04,09,02,25,3.30
2010,04,09,02,26,3.30
2010,04,09,02,27,3.30
2010,04,09,02,28,3.30
2010,04,09,02,29,3.30
2010,04,09,02,30,3.30
2010,04,09,02,31,3.30
2010,04,09,02,32,3.30
2010,04,09,02,33,3.30
2010,04,09,02,34,3.30
2010,04,09,02,35,3.30
2010,04,09,02,36,3.30
2010,04,09,02,37,3.30
2010,04,09,02,38,3.30
2010,04,09,02,39,3.30
2010,04,09,02,40,3.30
2010,04,09,02,41,3.30
2010,04,09,02,42,3.30
2010,04,09,02,43,3.30
2010,04,09,02,44,3.30
2010,04,09,02,45,3.30
2010,04,09,02,46,3.30
2010,04,09,02,47,3.30
2010,04,09,02,48,3.30
2010,04,09,02,49,3.30
2010,04,09,02,50,3.30
2010,04,09,02,51,3.30
2010,04,09,02,52,3.30
2010,04,09,02,53,3.30
2010,04,09,02,54,3.30
2010,04,09,02,55,3.30
2010,04,09,02,56,3.30
2010,04,09,02,57,3.30
2010,04,09,02,58,3.30
2010,04,09,02,59,3.30
2010,04,09,03,00,3.30
2010,04,09,03,01,3.40
2010,04,09,03,02,3.40
2010,04,09,03,03,3.40
2010,04,09,03,04,3.40
2010,04,09,03,05,3.40
2010,04,09,03,06,3.40
2010,04,09,03,07,3.40
2010,04,09,03,08,3.40
2010,04,09,03,09,3.40
2010,04,09,03,10,3.40
2010,04,09,03,11,3.40
2010,04,09,03,12,3.40
2010,04,09,03,13,3.40
2010,04,09,03,14,3.40
2010,04,09,03,15,3.40
2010,04,09,03,16,3.40
2010,04,09,03,17,3.30
2010,04,09,03,18,3.30
2010,04,09,03,19,3.30
2010,04,09,03,20,3.30
2010,04,09,03,21,3.30
2010,04,09,03,22,3.30
2010,04,09,03,23,3.20
2010,04,09,03,24,3.20
2010,04,09,03,25,3.10
2010,04,09,03,26,3.10
2010,04,09,03,27,3.10
2010,04,09,03,28,3.10
2010,04,09,03,29,3.00
2010,04,09,03,30,2.90
2010,04,09,03,31,2.90
2010,04,09,03,32,2.90
2010,04,09,03,33,2.90
2010,04,09,03,34,2.90
2010,04,09,03,35,2.90
2010,04,09,03,36,2.90
2010,04,09,03,37,2.90
2010,04,09,03,38,2.90
2010,04,09,03,39,2.90
2010,04,09,03,40,2.90
2010,04,09,03,41,2.90
2010,04,09,03,42,2.90
2010,04,09,03,43,2.80
2010,04,09,03,44,2.80
2010,04,09,03,45,2.80
2010,04,09,03,46,2.80
2010,04,09,03,47,2.80
2010,04,09,03,48,2.70
2010,04,09,03,49,2.70
2010,04,09,03,50,2.70
2010,04,09,03,51,2.70
2010,04,09,03,52,2.70
2010,04,09,03,53,2.70
2010,04,09,03,54,2.70
2010,04,09,03,55,2.70
2010,04,09,03,56,2.70
2010,04,09,03,57,2.60
2010,04,09,03,58,2.60
2010,04,09,03,59,2.60
2010,04,09,04,00,2.60
2010,04,09,04,01,2.60
2010,04,09,04,02,2.50
2010,04,09,04,03,2.50
2010,04,09,04,04,2.50
2010,04,09,04,05,2.50
2010,04,09,04,06,2.50
2010,04,09,04,07,2.50
2010,04,09,04,08,2.50
2010,04,09,04,09,2.40
2010,04,09,04,10,2.40
2010,04,09,04,11,2.40
2010,04,09,04,12,2.40
2010,04,09,04,13,2.40
2010,04,09,04,14,2.30
2010,04,09,04,15,2.30
2010,04,09,04,16,2.30
2010,04,09,04,17,2.30
2010,04,09,04,18,2.30
2010,04,09,04,19,2.20
2010,04,09,04,20,2.20
2010,04,09,04,21,2.20
2010,04,09,04,22,2.20
2010,04,09,04,23,2.20
2010,04,09,04,24,2.10
2010,04,09,04,25,2.10
2010,04,09,04,26,2.10
2010,04,09,04,27,2.00
2010,04,09,04,28,2.00
2010,04,09,04,29,2.00
2010,04,09,04,30,2.00
2010,04,09,04,31,1.90
2010,04,09,04,32,1.90
2010,04,09,04,33,1.90
2010,04,09,04,34,1.80
2010,04,09,04,35,1.80
2010,04,09,04,36,1.80
2010,04,09,04,37,1.80
2010,04,09,04,38,1.80
2010,04,09,04,39,1.80
2010,04,09,04,40,1.70
2010,04,09,04,41,1.70
2010,04,09,04,42,1.70
2010,04,09,04,43,1.70
2010,04,09,04,44,1.60
2010,04,09,04,45,1.60
2010,04,09,04,46,1.50
2010,04,09,04,47,1.50
2010,04,09,04,48,1.50
2010,04,09,04,49,1.50
2010,04,09,04,50,1.40
2010,04,09,04,51,1.40
2010,04,09,04,52,1.40
2010,04,09,04,53,1.30
2010,04,09,04,54,1.30
2010,04,09,04,55,1.30
2010,04,09,04,56,1.30
2010,04,09,04,57,1.30
2010,04,09,04,58,1.20
2010,04,09,04,59,1.20
2010,04,09,05,00,1.10
2010,04,09,05,01,1.10
2010,04,09,05,02,1.10
2010,04,09,05,03,1.00
2010,04,09,05,04,1.00
2010,04,09,05,05,1.00
2010,04,09,05,06,1.00
2010,04,09,05,07,1.00
2010,04,09,05,08,1.00
2010,04,09,05,09,0.90
2010,04,09,05,10,0.90
2010,04,09,05,11,0.90
2010,04,09,05,12,0.90
2010,04,09,05,13,0.90
2010,04,09,05,14,0.90
2010,04,09,05,15,0.90
2010,04,09,05,16,0.90
2010,04,09,05,17,0.90
2010,04,09,05,18,0.90
2010,04,09,05,19,0.90
2010,04,09,05,20,1.00
2010,04,09,05,21,0.90
2010,04,09,05,22,0.90
2010,04,09,05,23,0.90
2010,04,09,05,24,0.80
2010,04,09,05,25,0.80
2010,04,09,05,26,0.80
2010,04,09,05,27,0.80
2010,04,09,05,28,0.80
2010,04,09,05,29,0.80
2010,04,09,05,30,0.80
2010,04,09,05,31,0.80
2010,04,09,05,32,0.80
2010,04,09,05,33,0.70
2010,04,09,05,34,0.70
2010,04,09,05,35,0.70
2010,04,09,05,36,0.60
2010,04,09,05,37,0.60
2010,04,09,05,38,0.60
2010,04,09,05,39,0.60
2010,04,09,05,40,0.60
2010,04,09,05,41,0.60
2010,04,09,05,42,0.60
2010,04,09,05,43,0.60
2010,04,09,05,44,0.60
2010,04,09,05,45,0.60
2010,04,09,05,46,0.60
2010,04,09,05,47,0.50
2010,04,09,05,48,0.50
2010,04,09,05,49,0.50
2010,04,09,05,50,0.50
2010,04,09,05,51,0.50
2010,04,09,05,52,0.50
2010,04,09,05,53,0.50
2010,04,09,05,54,0.50
2010,04,09,05,55,0.50
2010,04,09,05,56,0.50
2010,04,09,05,57,0.50
2010,04,09,05,58,0.50
2010,04,09,05,59,0.40
2010,04,09,06,00,0.40
2010,04,09,06,01,0.40
2010,04,09,06,02,0.40
2010,04,09,06,03,0.40
2010,04,09,06,04,0.40
2010,04,09,06,05,0.40
2010,04,09,06,06,0.40
2010,04,09,06,07,0.40
2010,04,09,06,08,0.40
2010,04,09,06,09,0.40
2010,04,09,06,10,0.40
2010,04,09,06,11,0.50
2010,04,09,06,12,0.50
2010,04,09,06,13,0.50
2010,04,09,06,14,0.50
2010,04,09,06,15,0.50
2010,04,09,06,16,0.50
2010,04,09,06,17,0.50
2010,04,09,06,18,0.50
2010,04,09,06,19,0.50
2010,04,09,06,20,0.50
2010,04,09,06,21,0.50
2010,04,09,06,22,0.60
2010,04,09,06,23,0.60
2010,04,09,06,24,0.70
2010,04,09,06,25,0.80
2010,04,09,06,26,0.80
2010,04,09,06,27,0.80
2010,04,09,06,28,0.80
2010,04,09,06,29,0.80
2010,04,09,06,30,0.80
2010,04,09,06,31,0.80
2010,04,09,06,32,0.80
2010,04,09,06,33,0.80
2010,04,09,06,34,0.90
2010,04,09,06,35,0.90
2010,04,09,06,36,0.80
2010,04,09,06,37,0.80
2010,04,09,06,38,0.80
2010,04,09,06,39,0.90
2010,04,09,06,40,0.80
2010,04,09,06,41,0.90
2010,04,09,06,42,0.90
2010,04,09,06,43,0.90
2010,04,09,06,44,0.90
2010,04,09,06,45,0.90
2010,04,09,06,46,0.90
2010,04,09,06,47,0.90
2010,04,09,06,48,0.90
2010,04,09,06,49,0.90
2010,04,09,06,50,0.90
2010,04,09,06,51,0.90
2010,04,09,06,52,0.90
2010,04,09,06,53,0.90
2010,04,09,06,54,1.00
2010,04,09,06,55,1.00
2010,04,09,06,56,1.00
2010,04,09,06,57,1.10
2010,04,09,06,58,1.10
2010,04,09,06,59,1.10
2010,04,09,07,00,1.10
2010,04,09,07,01,1.20
2010,04,09,07,02,1.20
2010,04,09,07,03,1.20
2010,04,09,07,04,1.20
2010,04,09,07,05,1.30
2010,04,09,07,06,1.30
2010,04,09,07,07,1.30
2010,04,09,07,08,1.30
2010,04,09,07,09,1.40
2010,04,09,07,10,1.40
2010,04,09,07,11,1.50
2010,04,09,07,12,1.50
2010,04,09,07,13,1.60
2010,04,09,07,14,1.60
2010,04,09,07,15,1.70
2010,04,09,07,16,1.70
2010,04,09,07,17,1.80
2010,04,09,07,18,1.80
2010,04,09,07,19,1.80
2010,04,09,07,20,1.80
2010,04,09,07,21,1.80
2010,04,09,07,22,1.80
2010,04,09,07,23,1.80
2010,04,09,07,24,1.80
2010,04,09,07,25,1.80
2010,04,09,07,26,1.80
2010,04,09,07,27,1.80
2010,04,09,07,28,1.80
2010,04,09,07,29,1.80
2010,04,09,07,30,1.70
2010,04,09,07,31,1.70
2010,04,09,07,32,1.70
2010,04,09,07,33,1.70
2010,04,09,07,34,1.70
2010,04,09,07,35,1.60
2010,04,09,07,36,1.60
2010,04,09,07,37,1.60
2010,04,09,07,38,1.60
2010,04,09,07,39,1.60
2010,04,09,07,40,1.60
2010,04,09,07,41,1.60
2010,04,09,07,42,1.60
2010,04,09,07,43,1.60
2010,04,09,07,44,1.60
2010,04,09,07,45,1.60
2010,04,09,07,46,1.60
2010,04,09,07,47,1.60
2010,04,09,07,48,1.60
2010,04,09,07,49,1.60
2010,04,09,07,50,1.70
2010,04,09,07,51,1.70
2010,04,09,07,52,1.70
2010,04,09,07,53,1.70
2010,04,09,07,54,1.70
2010,04,09,07,55,1.70
2010,04,09,07,56,1.70
2010,04,09,07,57,1.80
2010,04,09,07,58,1.80
2010,04,09,07,59,1.80
2010,04,09,08,00,1.80
2010,04,09,08,01,1.80
2010,04,09,08,02,1.80
2010,04,09,08,03,1.90
2010,04,09,08,04,1.90
2010,04,09,08,05,2.00
2010,04,09,08,06,2.00
2010,04,09,08,07,2.00
2010,04,09,08,08,2.10
2010,04,09,08,09,2.10
2010,04,09,08,10,2.10
2010,04,09,08,11,2.20
2010,04,09,08,12,2.20
2010,04,09,08,13,2.20
2010,04,09,08,14,2.20
2010,04,09,08,15,2.30
2010,04,09,08,16,2.30
2010,04,09,08,17,2.30
2010,04,09,08,18,2.40
2010,04,09,08,19,2.40
2010,04,09,08,20,2.50
2010,04,09,08,21,2.50
2010,04,09,08,22,2.50
2010,04,09,08,23,2.50
2010,04,09,08,24,2.50
2010,04,09,08,25,2.50
2010,04,09,08,26,2.50
2010,04,09,08,27,2.50
2010,04,09,08,28,2.40
2010,04,09,08,29,2.40
2010,04,09,08,30,2.30
2010,04,09,08,31,2.30
2010,04,09,08,32,2.30
2010,04,09,08,33,2.30
2010,04,09,08,34,2.30
2010,04,09,08,35,2.30
2010,04,09,08,36,2.30
2010,04,09,08,37,2.30
2010,04,09,08,38,2.30
2010,04,09,08,39,2.30
2010,04,09,08,40,2.30
2010,04,09,08,41,2.40
2010,04,09,08,42,2.40
2010,04,09,08,43,2.40
2010,04,09,08,44,2.50
2010,04,09,08,45,2.50
2010,04,09,08,46,2.50
2010,04,09,08,47,2.60
2010,04,09,08,48,2.60
2010,04,09,08,49,2.60
2010,04,09,08,50,2.70
2010,04,09,08,51,2.70
2010,04,09,08,52,2.70
2010,04,09,08,53,2.70
2010,04,09,08,54,2.70
2010,04,09,08,55,2.70
2010,04,09,08,56,2.70
2010,04,09,08,57,2.80
2010,04,09,08,58,2.80
2010,04,09,08,59,2.90
2010,04,09,09,00,2.90
2010,04,09,09,01,2.90
2010,04,09,09,02,2.90
2010,04,09,09,03,2.80
2010,04,09,09,04,2.80
2010,04,09,09,05,2.80
2010,04,09,09,06,2.80
2010,04,09,09,07,2.80
2010,04,09,09,08,2.90
2010,04,09,09,09,2.80
2010,04,09,09,10,2.80
2010,04,09,09,11,2.80
2010,04,09,09,12,2.70
2010,04,09,09,13,2.80
2010,04,09,09,14,2.80
2010,04,09,09,15,2.80
2010,04,09,09,16,2.80
2010,04,09,09,17,2.80
2010,04,09,09,18,2.80
2010,04,09,09,19,2.80
2010,04,09,09,20,2.80
2010,04,09,09,21,2.80
2010,04,09,09,22,2.80
2010,04,09,09,23,2.80
2010,04,09,09,24,2.90
2010,04,09,09,25,2.90
2010,04,09,09,26,3.10
2010,04,09,09,27,3.10
2010,04,09,09,28,3.20
2010,04,09,09,29,3.20
2010,04,09,09,30,3.30
2010,04,09,09,31,3.30
2010,04,09,09,32,3.30
2010,04,09,09,33,3.40
2010,04,09,09,34,3.50
2010,04,09,09,35,3.50
2010,04,09,09,36,3.60
2010,04,09,09,37,3.60
2010,04,09,09,38,3.60
2010,04,09,09,39,3.60
2010,04,09,09,40,3.60
2010,04,09,09,41,3.70
2010,04,09,09,42,3.70
2010,04,09,09,43,3.70
2010,04,09,09,44,3.70
2010,04,09,09,45,3.70
2010,04,09,09,46,3.70
2010,04,09,09,47,3.80
2010,04,09,09,48,3.80
2010,04,09,09,49,3.90
2010,04,09,09,50,3.90
2010,04,09,09,51,3.90
2010,04,09,09,52,3.90
2010,04,09,09,53,3.90
2010,04,09,09,54,3.90
2010,04,09,09,55,4.00
2010,04,09,09,56,4.00
2010,04,09,09,57,4.00
2010,04,09,09,58,4.00
2010,04,09,09,59,4.10
2010,04,09,10,00,4.20
2010,04,09,10,01,4.30
2010,04,09,10,02,4.30
2010,04,09,10,03,4.40
2010,04,09,10,04,4.40
2010,04,09,10,05,4.40
2010,04,09,10,06,4.50
2010,04,09,10,07,4.50
2010,04,09,10,08,4.50
2010,04,09,10,09,4.50
2010,04,09,10,10,4.50
2010,04,09,10,11,4.50
2010,04,09,10,12,4.60
2010,04,09,10,13,4.60
2010,04,09,10,14,4.60
2010,04,09,10,15,4.70
2010,04,09,10,16,4.80
2010,04,09,10,17,4.90
2010,04,09,10,18,4.90
2010,04,09,10,19,4.90
2010,04,09,10,20,4.90
2010,04,09,10,21,4.90
2010,04,09,10,22,5.00
2010,04,09,10,23,5.10
2010,04,09,10,24,5.00
2010,04,09,10,25,5.10
2010,04,09,10,26,5.10
2010,04,09,10,27,5.10
2010,04,09,10,28,5.10
2010,04,09,10,29,5.00
2010,04,09,10,30,4.90
2010,04,09,10,31,5.10
2010,04,09,10,32,5.10
2010,04,09,10,33,5.20
2010,04,09,10,34,5.30
2010,04,09,10,35,5.30
2010,04,09,10,36,5.30
2010,04,09,10,37,5.30
2010,04,09,10,38,5.30
2010,04,09,10,39,5.30
2010,04,09,10,40,5.20
2010,04,09,10,41,5.10
2010,04,09,10,42,5.20
2010,04,09,10,43,5.20
2010,04,09,10,44,5.30
2010,04,09,10,45,5.30
2010,04,09,10,46,5.30
2010,04,09,10,47,5.30
2010,04,09,10,48,5.40
2010,04,09,10,49,5.60
2010,04,09,10,50,5.60
2010,04,09,10,51,5.70
2010,04,09,10,52,5.80
2010,04,09,10,53,5.80
2010,04,09,10,54,5.80
2010,04,09,10,55,5.80
2010,04,09,10,56,5.70
2010,04,09,10,57,5.70
2010,04,09,10,58,5.70
2010,04,09,10,59,5.70
2010,04,09,11,00,5.70
2010,04,09,11,01,5.80
2010,04,09,11,02,5.80
2010,04,09,11,03,5.90
2010,04,09,11,04,6.00
2010,04,09,11,05,5.90
2010,04,09,11,06,5.90
2010,04,09,11,07,5.90
2010,04,09,11,08,5.90
2010,04,09,11,09,5.80
2010,04,09,11,10,5.70
2010,04,09,11,11,5.60
2010,04,09,11,12,5.50
2010,04,09,11,13,5.60
2010,04,09,11,14,5.70
2010,04,09,11,15,5.70
2010,04,09,11,16,5.70
2010,04,09,11,17,5.70
2010,04,09,11,18,5.70
2010,04,09,11,19,5.70
2010,04,09,11,20,5.70
2010,04,09,11,21,5.70
2010,04,09,11,22,5.70
2010,04,09,11,23,5.70
2010,04,09,11,24,5.80
2010,04,09,11,25,5.90
2010,04,09,11,26,5.90
2010,04,09,11,27,5.80
2010,04,09,11,28,5.80
2010,04,09,11,29,5.80
2010,04,09,11,30,5.70
2010,04,09,11,31,5.70
2010,04,09,11,32,5.80
2010,04,09,11,33,5.90
2010,04,09,11,34,5.90
2010,04,09,11,35,5.90
2010,04,09,11,36,5.80
2010,04,09,11,37,5.80
2010,04,09,11,38,5.70
2010,04,09,11,39,5.70
2010,04,09,11,40,5.70
2010,04,09,11,41,5.60
2010,04,09,11,42,5.60
2010,04,09,11,43,5.50
2010,04,09,11,44,5.50
2010,04,09,11,45,5.50
2010,04,09,11,46,5.50
2010,04,09,11,47,5.50
2010,04,09,11,48,5.60
2010,04,09,11,49,5.60
2010,04,09,11,50,5.60
2010,04,09,11,51,5.60
2010,04,09,11,52,5.60
2010,04,09,11,53,5.60
2010,04,09,11,54,5.60
2010,04,09,11,55,5.60
2010,04,09,11,56,5.60
2010,04,09,11,57,5.60
2010,04,09,11,58,5.70
2010,04,09,11,59,5.70
2010,04,09,12,00,5.70
2010,04,09,12,01,5.70
2010,04,09,12,02,5.60
2010,04,09,12,03,5.50
2010,04,09,12,04,5.50
2010,04,09,12,05,5.50
2010,04,09,12,06,5.50
2010,04,09,12,07,5.50
2010,04,09,12,08,5.50
2010,04,09,12,09,5.50
2010,04,09,12,10,5.50
2010,04,09,12,11,5.40
2010,04,09,12,12,5.50
2010,04,09,12,13,5.50
2010,04,09,12,14,5.50
2010,04,09,12,15,5.60
2010,04,09,12,16,5.60
2010,04,09,12,17,5.70
2010,04,09,12,18,5.70
2010,04,09,12,19,5.80
2010,04,09,12,20,6.00
2010,04,09,12,21,6.10
2010,04,09,12,22,6.10
2010,04,09,12,23,6.10
2010,04,09,12,24,6.20
2010,04,09,12,25,6.20
2010,04,09,12,26,6.20
2010,04,09,12,27,6.20
2010,04,09,12,28,6.20
2010,04,09,12,29,6.30
2010,04,09,12,30,6.30
2010,04,09,12,31,6.40
2010,04,09,12,32,6.40
2010,04,09,12,33,6.50
2010,04,09,12,34,6.60
2010,04,09,12,35,6.50
2010,04,09,12,36,6.40
2010,04,09,12,37,6.40
2010,04,09,12,38,6.40
2010,04,09,12,39,6.40
2010,04,09,12,40,6.40
2010,04,09,12,41,6.50
2010,04,09,12,42,6.60
2010,04,09,12,43,6.40
2010,04,09,12,44,6.40
2010,04,09,12,45,6.40
2010,04,09,12,46,6.40
2010,04,09,12,47,6.40
2010,04,09,12,48,6.30
2010,04,09,12,49,6.30
2010,04,09,12,50,6.40
2010,04,09,12,51,6.40
2010,04,09,12,52,6.40
2010,04,09,12,53,6.40
2010,04,09,12,54,6.40
2010,04,09,12,55,6.40
2010,04,09,12,56,6.40
2010,04,09,12,57,6.40
2010,04,09,12,58,6.40
2010,04,09,12,59,6.40
2010,04,09,13,00,6.40
2010,04,09,13,01,6.50
2010,04,09,13,02,6.70
2010,04,09,13,03,6.70
2010,04,09,13,04,6.70
2010,04,09,13,05,6.70
2010,04,09,13,06,6.60
2010,04,09,13,07,6.60
2010,04,09,13,08,6.70
2010,04,09,13,09,6.70
2010,04,09,13,10,6.90
2010,04,09,13,11,6.90
2010,04,09,13,12,6.90
2010,04,09,13,15,6.80
2010,04,09,13,16,6.80
2010,04,09,13,17,6.80
2010,04,09,13,18,6.60
2010,04,09,13,19,6.60
2010,04,09,13,20,6.60
2010,04,09,13,21,6.70
2010,04,09,13,22,6.80
2010,04,09,13,23,7.00
2010,04,09,13,24,7.10
2010,04,09,13,25,7.10
2010,04,09,13,26,7.30
2010,04,09,13,27,7.30
2010,04,09,13,28,7.30
2010,04,09,13,29,7.20
2010,04,09,13,30,7.20
2010,04,09,13,31,7.10
2010,04,09,13,32,7.10
2010,04,09,13,33,7.10
2010,04,09,13,34,7.20
2010,04,09,13,35,7.20
2010,04,09,13,36,7.30
2010,04,09,13,37,7.50
2010,04,09,13,38,7.50
2010,04,09,13,39,7.30
2010,04,09,13,40,7.30
2010,04,09,13,41,7.30
2010,04,09,13,42,7.30
2010,04,09,13,43,7.30
2010,04,09,13,44,7.30
2010,04,09,13,45,7.40
2010,04,09,13,46,7.40
2010,04,09,13,47,7.40
2010,04,09,13,48,7.50
2010,04,09,13,49,7.50
2010,04,09,13,50,7.50
2010,04,09,13,51,7.60
2010,04,09,13,52,7.50
2010,04,09,13,53,7.30
2010,04,09,13,54,7.30
2010,04,09,13,55,7.30
2010,04,09,13,56,7.30
2010,04,09,13,57,7.30
2010,04,09,13,58,7.30
2010,04,09,13,59,7.30
2010,04,09,14,00,7.30
2010,04,09,14,01,7.50
2010,04,09,14,02,7.50
2010,04,09,14,03,7.40
2010,04,09,14,04,7.40
2010,04,09,14,05,7.40
2010,04,09,14,06,7.50
2010,04,09,14,07,7.40
2010,04,09,14,08,7.40
2010,04,09,14,09,7.50
2010,04,09,14,10,7.50
2010,04,09,14,11,7.60
2010,04,09,14,12,7.70
2010,04,09,14,13,7.70
2010,04,09,14,14,7.70
2010,04,09,14,15,7.70
2010,04,09,14,16,7.80
2010,04,09,14,17,7.90
2010,04,09,14,18,7.90
2010,04,09,14,19,7.90
2010,04,09,14,20,7.80
2010,04,09,14,21,7.90
2010,04,09,14,22,8.00
2010,04,09,14,23,7.90
2010,04,09,14,24,8.00
2010,04,09,14,25,8.10
2010,04,09,14,26,8.10
2010,04,09,14,27,8.10
2010,04,09,14,28,8.10
2010,04,09,14,29,8.10
2010,04,09,14,30,8.20
2010,04,09,14,31,8.20
2010,04,09,14,32,8.20
2010,04,09,14,33,8.20
2010,04,09,14,34,8.20
2010,04,09,14,35,8.10
2010,04,09,14,36,8.10
2010,04,09,14,37,8.00
2010,04,09,14,38,7.90
2010,04,09,14,39,7.80
2010,04,09,14,40,7.80
2010,04,09,14,41,7.90
2010,04,09,14,42,7.90
2010,04,09,14,43,7.80
2010,04,09,14,44,7.80
2010,04,09,14,45,7.80
2010,04,09,14,46,7.80
2010,04,09,14,47,7.90
2010,04,09,14,48,7.90
2010,04,09,14,49,8.00
2010,04,09,14,50,8.00
2010,04,09,14,51,8.10
2010,04,09,14,52,8.00
2010,04,09,14,53,8.00
2010,04,09,14,54,8.10
2010,04,09,14,55,8.10
2010,04,09,14,56,8.00
2010,04,09,14,57,8.00
2010,04,09,14,58,8.00
2010,04,09,14,59,8.00
2010,04,09,15,00,8.00
2010,04,09,15,01,8.00
2010,04,09,15,02,8.10
2010,04,09,15,03,8.10
2010,04,09,15,04,8.20
2010,04,09,15,05,8.20
2010,04,09,15,06,8.20
2010,04,09,15,07,8.20
2010,04,09,15,08,8.30
2010,04,09,15,09,8.30
2010,04,09,15,10,8.20
2010,04,09,15,11,8.30
2010,04,09,15,12,8.30
2010,04,09,15,13,8.40
2010,04,09,15,14,8.40
2010,04,09,15,15,8.40
2010,04,09,15,16,8.40
2010,04,09,15,17,8.40
2010,04,09,15,18,8.40
2010,04,09,15,19,8.30
2010,04,09,15,20,8.20
2010,04,09,15,21,8.20
2010,04,09,15,22,8.20
2010,04,09,15,23,8.20
2010,04,09,15,24,8.30
2010,04,09,15,25,8.30
2010,04,09,15,26,8.30
2010,04,09,15,27,8.40
2010,04,09,15,28,8.40
2010,04,09,15,29,8.40
2010,04,09,15,30,8.40
2010,04,09,15,31,8.40
2010,04,09,15,32,8.40
2010,04,09,15,33,8.40
2010,04,09,15,34,8.40
2010,04,09,15,35,8.40
2010,04,09,15,36,8.40
2010,04,09,15,37,8.50
2010,04,09,15,38,8.50
2010,04,09,15,39,8.40
2010,04,09,15,40,8.40
2010,04,09,15,41,8.40
2010,04,09,15,42,8.40
2010,04,09,15,43,8.40
2010,04,09,15,44,8.40
2010,04,09,15,45,8.40
2010,04,09,15,46,8.50
2010,04,09,15,47,8.50
2010,04,09,15,48,8.50
2010,04,09,15,49,8.70
2010,04,09,15,50,8.70
2010,04,09,15,51,8.80
2010,04,09,15,52,8.70
2010,04,09,15,53,8.70
2010,04,09,15,54,8.70
2010,04,09,15,55,8.50
2010,04,09,15,56,8.50
2010,04,09,15,57,8.50
2010,04,09,15,58,8.50
2010,04,09,15,59,8.50
2010,04,09,16,00,8.50
2010,04,09,16,01,8.50
2010,04,09,16,02,8.40
2010,04,09,16,03,8.40
2010,04,09,16,04,8.30
2010,04,09,16,05,8.40
2010,04,09,16,06,8.50
2010,04,09,16,07,8.70
2010,04,09,16,08,8.80
2010,04,09,16,09,8.80
2010,04,09,16,10,8.80
2010,04,09,16,11,8.80
2010,04,09,16,12,8.80
2010,04,09,16,13,8.90
2010,04,09,16,14,8.90
2010,04,09,16,15,8.80
2010,04,09,16,16,8.70
2010,04,09,16,17,8.70
2010,04,09,16,18,8.70
2010,04,09,16,19,8.80
2010,04,09,16,20,8.80
2010,04,09,16,21,8.90
2010,04,09,16,22,8.90
2010,04,09,16,23,8.90
2010,04,09,16,24,8.80
2010,04,09,16,25,8.80
2010,04,09,16,26,8.70
2010,04,09,16,27,8.70
2010,04,09,16,28,8.80
2010,04,09,16,29,8.80
2010,04,09,16,30,8.80
2010,04,09,16,31,8.80
2010,04,09,16,32,8.80
2010,04,09,16,33,8.70
2010,04,09,16,34,8.70
2010,04,09,16,35,8.70
2010,04,09,16,36,8.80
2010,04,09,16,37,8.80
2010,04,09,16,38,8.80
2010,04,09,16,39,8.90
2010,04,09,16,40,8.90
2010,04,09,16,41,8.80
2010,04,09,16,42,8.80
2010,04,09,16,43,8.70
2010,04,09,16,44,8.70
2010,04,09,16,45,8.70
2010,04,09,16,46,8.60
2010,04,09,16,47,8.70
2010,04,09,16,48,8.70
2010,04,09,16,49,8.80
2010,04,09,16,50,8.80
2010,04,09,16,51,8.80
2010,04,09,16,52,8.80
2010,04,09,16,53,8.70
2010,04,09,16,54,8.70
2010,04,09,16,55,8.80
2010,04,09,16,56,8.80
2010,04,09,16,57,8.80
2010,04,09,16,58,8.80
2010,04,09,16,59,8.80
2010,04,09,17,00,8.80
2010,04,09,17,01,8.70
2010,04,09,17,02,8.70
2010,04,09,17,03,8.70
2010,04,09,17,04,8.70
2010,04,09,17,05,8.70
2010,04,09,17,06,8.70
2010,04,09,17,07,8.70
2010,04,09,17,08,8.70
2010,04,09,17,09,8.60
2010,04,09,17,10,8.50
2010,04,09,17,11,8.50
2010,04,09,17,12,8.50
2010,04,09,17,13,8.50
2010,04,09,17,14,8.50
2010,04,09,17,15,8.60
2010,04,09,17,16,8.60
2010,04,09,17,17,8.60
2010,04,09,17,18,8.60
2010,04,09,17,19,8.70
2010,04,09,17,20,8.70
2010,04,09,17,21,8.70
2010,04,09,17,22,8.70
2010,04,09,17,23,8.70
2010,04,09,17,24,8.70
2010,04,09,17,25,8.70
2010,04,09,17,26,8.80
2010,04,09,17,27,8.80
2010,04,09,17,28,8.70
2010,04,09,17,29,8.70
2010,04,09,17,30,8.70
2010,04,09,17,31,8.60
2010,04,09,17,32,8.50
2010,04,09,17,33,8.50
2010,04,09,17,34,8.50
2010,04,09,17,35,8.50
2010,04,09,17,36,8.50
2010,04,09,17,37,8.50
2010,04,09,17,38,8.50
2010,04,09,17,39,8.50
2010,04,09,17,40,8.50
2010,04,09,17,41,8.50
2010,04,09,17,42,8.40
2010,04,09,17,43,8.50
2010,04,09,17,44,8.50
2010,04,09,17,45,8.60
2010,04,09,17,46,8.60
2010,04,09,17,47,8.60
2010,04,09,17,48,8.60
2010,04,09,17,49,8.60
2010,04,09,17,50,8.50
2010,04,09,17,51,8.50
2010,04,09,17,52,8.40
2010,04,09,17,53,8.40
2010,04,09,17,54,8.30
2010,04,09,17,55,8.30
2010,04,09,17,56,8.30
2010,04,09,17,57,8.20
2010,04,09,17,58,8.30
2010,04,09,17,59,8.30
2010,04,09,18,00,8.30
2010,04,09,18,01,8.30
2010,04,09,18,02,8.30
2010,04,09,18,03,8.30
2010,04,09,18,04,8.30
2010,04,09,18,05,8.30
2010,04,09,18,06,8.20
2010,04,09,18,07,8.20
2010,04,09,18,08,8.20